Regional Weather Roundup
Issued by NWS Charleston, SC

Current Version | Previous Version | Text Only | Print | Product List | Glossary Off
Versions: 1 2 3 4 5 6 7 8 9 10 11 12 13 14 15 16 17 18 19 20 21 22 23 24 25 26 27 28 29 30 31 32 33 34 35 36 37 38 39 40 41 42 43 44 45 46 47 48 49 50

000
ASUS42 KCHS 271428
RWRCHS

REGIONAL WEATHER ROUNDUP
NATIONAL WEATHER SERVICE CHARLESTON SC
1000 AM EDT SAT AUG 27 2016

NOTE: "FAIR" INDICATES FEW OR NO CLOUDS BELOW 12,000 FEET WITH NO
SIGNIFICANT WEATHER AND/OR OBSTRUCTIONS TO VISIBILITY.

NOT ALL STATIONS ARE QUALITY CONTROLLED. USE DATA WITH CAUTION...
ESPECIALLY DEWPOINT OBSERVATIONS.

SCZ027-030-031-034>040-042>050-271500-
...SOUTHEAST SOUTH CAROLINA...

CITY           SKY/WX    TMP DP  RH WIND       PRES   REMARKS
N CHARLESTON   MOSUNNY   85  71  63 E10       30.09S HX  90
WATERFRONT PRK   N/A     82  75  79 NE8       30.06S
MOUNT PLEASANT PTSUNNY   82  73  74 CALM      30.10R
JOHNS ISLAND   FAIR      84  73  70 NE9       30.09S HX  91
PINOPOLIS        N/A     81  73  78 VRB3      30.04R
MONCKS CORNER  FAIR      82  72  69 NE9       30.11S HAZE
SUMMERVILLE    FAIR      84  73  70 NE7       30.11S HX  91
BEAUFORT MCAS  SUNNY     84  72  67 NE9       30.08S
BEAUFORT ARPT  FAIR      84  72  65 E12G21    30.08S
HILTON HEAD IS MOSUNNY   86  73  66 NE9       30.08S HX  93
WALTERBORO     MOSUNNY   86  72  62 E8        30.11S HX  92
ALLENDALE      FAIR      84  72  65 VRB7G14   30.09S

...SOUTHERN MIDLANDS AND PEE DEE...

CITY           SKY/WX    TMP DP  RH WIND       PRES   REMARKS
GEORGETOWN     FAIR      84  72  65 E9        30.11S
KINGSTREE      FAIR      84  70  61 E5        30.11S
ORANGEBURG     SUNNY     83  73  72 NE8       30.11S
BARNWELL       NOT AVBL
AIKEN          FAIR      82  70  65 E7        30.15R
MANNING        FAIR      82  72  69 NE3       30.12S
COLUMBIA       SUNNY     86  70  58 VRB7      30.11R HX  90
SUMTER         SUNNY     84  71  65 SE5       30.10S
FLORENCE       SUNNY     85  72  65 E6        30.12S HX  91
MYRTLE BEACH   MOSUNNY   88  68  51 E8        30.12R HX  91
N MYRTLE BEACH SUNNY     84  72  67 NE6       30.11R

$$

GAZ063-065-086>088-099>101-113>116-118-119-134>141-150-271500-
...SOUTHEAST GEORGIA...

CITY           SKY/WX    TMP DP  RH WIND       PRES   REMARKS
SAVANNAH ARPT  MOSUNNY   84  72  67 NE10      30.08R
HUNTER AAF     MOSUNNY   83  77  80 NE12      30.05S HX  92
FORT STEWART   SUNNY     82  72  71 NE8       30.05S
STATESBORO     MOSUNNY   82  74  74 E8        30.09S
SYLVANIA       NOT AVBL
CLAXTON        FAIR      83  72  68 NE12      30.08S

...CSRA...CENTRAL AND FAR SOUTHEAST GEORGIA...

CITY           SKY/WX    TMP DP  RH WIND       PRES   REMARKS
THOMSON        SUNNY     86  74  68 MISG      30.16R HX  94
AUGUSTA-BUSH   SUNNY     84  72  67 NE3       30.10R
AUGUSTA-DANIEL SUNNY     85  69  58 E9        30.12R
SWAINSBORO     FAIR      86  68  54 E8        30.10S
VIDALIA        MOSUNNY   81  75  83 E6        30.09S
EASTMAN        FAIR      84  61  45 E6        30.11F
HAZLEHURST     FAIR      83  74  73 CALM      30.07S
ALMA           SUNNY     79  70  74 E7        30.07S
WAYCROSS         N/A     84  75  74 E7        30.06F HX  91
JESUP          FAIR      86  77  74 E8        30.07S HX  97
BAXLEY         FAIR      82  75  78 E8G16     30.07S
BRUNSWICK      CLOUDY    86  77  74 NE17      30.05F HX  97
SAINT SIMONS   NOT AVBL

$$

SCZ027-028-034-036>038-045-046-048>050-GAZ119-141-271500-
...LAKE AND SUPPLEMENTAL COASTAL OBSERVATIONS...

STATION/POSITION TIME  TEMP    WIND        PRES    WAVE   SWELL
                       AIR SEA DIR/SP/G            HT/PER HT/PER/DIR
                 (UTC) (F)     (DEG/KT/KT) (MB)    (FT/S) (FT/S/D)
WINYAH BAY       1300   81      40/  6     1018.0S
LAKE MURRAY      1400   85     160/  2/  4 1019.3R
ACE BASIN NERRS  1300   80      20/  3     1019.0R
FORT PULASKI     1400   82 85   50/ 13/ 18 1018.7R
SAPELO ISLAND    1400   86      60/ 12     1018.0S

$$

ANZ835-935-AMZ111-154-330-350-352-354-370-450-454-472-271500-
...C-MAN AND BUOY OBSERVATIONS...

STATION/POSITION TIME  TEMP    WIND        PRES    WAVE   SWELL
                       AIR SEA DIR/SP/G            HT/PER HT/PER/DIR
                 (UTC) (F)     (DEG/KT/KT) (MB)    (FT/S) (FT/S/D)
BUOY 41004       1350   83 83   70/ 12/ 16 1018.1R   5/10   3/130/10
BUOY 41008       1350   83 85   60/ 17/ 21 1017.3R   5/11   3/110/11
FOLLY BEACH CMAN 1400   82      40/ 10/ 12 1019.3R
CAPERS NEARSHORE 1408   82 84   70/ 14/ 17 1018.8R
FRIPP NEARSHORE  1408   83 86   60/ 12/ 17 1018.1R


STATION/POSITION TIME  TEMP    WIND        PRES    WAVE   SWELL
                       AIR SEA DIR/SP/G            HT/PER HT/PER/DIR
                 (UTC) (F)     (DEG/KT/KT) (MB)    (FT/S) (FT/S/D)
5E ST. MARYS GA  1401      85                N/A     4/11   2/110/11
FRYING PAN BUOY  1400   82 84   50/ 10/ 14 1019.0R
BUOY 41025       1350   82 85  350/  6/  8 1019.9R   3/10   3/110/10
CAPE LOOKOUT NC  1400   83      10/  5/  7 1019.5R
BUOY 41002       1350   82 84   50/ 14/ 17 1018.0R   4/ 9   3/120/ 9
BUOY 41010       NOT AVBL
ST AUGUSTINE FL  1400   81 83   30/ 15/ 16 1017.3R


$$




USA.gov is the U.S. government's official web portal to all federal, state and local government web resources and services.